Regional Weather Roundup
Issued by NWS

Home | Current Version | Previous Version | Text Only | Print | Product List | Glossary On
Versions: 1 2 3 4 5 6 7 8 9 10 11 12 13 14 15 16 17 18 19 20 21 22 23 24 25 26 27 28 29 30 31 32 33 34 35 36 37 38 39 40 41 42 43 44 45 46 47 48 49 50
000
ASUS44 KMEG 172310
RWRTN
TENNESSEE HOURLY STATE WEATHER ROUNDUP
NATIONAL WEATHER SERVICE MEMPHIS TN
500 PM CST WED DEC 17 2014

TNZ002-004-019-021-049-052-054-088>092-180000-
WEST TENNESSEE

CITY           SKY/WX    TMP DP  RH WIND       PRES   REMARKS
MEMPHIS INTL   CLOUDY    40  32  73 N7        30.27S
NWS MEMPHIS      N/A     40 N/A N/A MISG        N/A
JACKSON        MOCLDY    38  30  73 NW7       30.28R WCI  33
DYERSBURG      MOCLDY    37  21  52 CALM      30.30R
UNION CITY     CLEAR     34  28  80 NW3       30.27S
PARIS          CLEAR     36  27  69 CALM      30.26S
HUNTINGDON     MOCLDY    36  27  70 W3        30.27S
LEXINGTON      CLEAR     37  30  75 NW5       30.25R WCI  34
SAVANNAH       CLEAR     39  30  70 CALM      30.25S
$$

TNZ008-025-027-028-033-062-065-066-180000-
NORTH MIDDLE TENNESSEE

CITY           SKY/WX    TMP DP  RH WIND       PRES   REMARKS
NASHVILLE      CLOUDY    38  29  70 CALM      30.26S
CLARKSVILLE    MOCLDY    36  27  69 N5        30.26S WCI  32
SMYRNA         CLOUDY    38  29  70 CALM      30.27S
COOKEVILLE     CLEAR     37  32  81 CALM      30.22S
CROSSVILLE     CLOUDY    36  29  75 NW5       30.19R WCI  32
$$

TNZ061-075-076-078-094-096-097-180000-
SOUTH MIDDLE TENNESSEE

CITY           SKY/WX    TMP DP  RH WIND       PRES   REMARKS
FAYETTEVILLE   CLEAR     36  30  80 MISG      30.23R
TULLAHOMA      MOCLDY    36  30  80 N3        30.23R
WINCHESTER     CLOUDY    37  32  81 CALM      30.24R
MCMINNVILLE    MOCLDY    37  30  75 CALM      30.23R
SHELBYVILLE    CLEAR     37  32  81 NE3       30.25R
$$

TNZ017-018-042-046-047-180000-
NORTHEAST TENNESSEE

CITY           SKY/WX    TMP DP  RH WIND       PRES   REMARKS
TRI CITIES     MOCLDY    40  32  73 SW7       30.15R
ELIZABETHTON   CLEAR     39  30  70 W6        30.14S WCI  35
$$

TNZ012-013-036-069-073-074-180000-
CENTRAL EAST TENNESSEE

CITY           SKY/WX    TMP DP  RH WIND       PRES   REMARKS
KNOXVILLE      CLOUDY    42  34  73 SW6       30.19R
OAK RIDGE      CLOUDY    43  31  62 W3        30.20R
GATLINBURG     CLEAR     39  34  81 CALM      30.18R
MORRISTOWN     CLEAR     43  34  70 NW3       30.18R
$$

TNZ083-085-099-180000-
SOUTHEAST TENNESSEE

CITY           SKY/WX    TMP DP  RH WIND       PRES   REMARKS
CHATTANOOGA    CLOUDY    44  34  67 N7        30.20S
$$

SKY/WX REPORTED AS FAIR MEANS FEW OR NO CLOUDS BELOW
12 THOUSAND FEET.




USA.gov is the U.S. government's official web portal to all federal, state and local government web resources and services.